Location: Unspecified
(47.1832°N, 0.0000°E)
Time: 04:51:19
(UTC+00:00)

EDUSAT - Visible Passes

Search period start: 05 April 2026 00:00
Search period end: 15 April 2026 00:00
Orbit: 616 x 665 km, 98.3° (Epoch: 29 March)

Date Brightness Start Highest point End Pass type
(mag) Time Alt. Az. Time Alt. Az. Time Alt. Az.
5 Apr ? 22:30:03 10° NNE 22:30:55 15° NNE 22:30:55 15° NNE visible
6 Apr ? 00:07:03 10° N 00:08:31 17° NNW 00:08:31 17° NNW visible
6 Apr ? 22:53:32 10° NNE 22:54:56 20° NNE 22:54:56 20° NNE visible
7 Apr ? 00:31:26 10° NNW 00:32:32 13° NW 00:32:32 13° NW visible
7 Apr ? 23:17:11 10° N 23:18:57 23° N 23:18:57 23° N visible
8 Apr ? 22:04:52 10° NE 22:05:22 12° NE 22:05:22 12° NE visible
8 Apr ? 23:41:01 10° N 23:42:58 23° NNW 23:42:58 23° NNW visible
9 Apr ? 22:28:05 10° NNE 22:29:23 18° NE 22:29:23 18° NE visible
10 Apr ? 00:05:01 10° N 00:06:58 20° NNW 00:06:58 20° NNW visible
10 Apr ? 22:51:33 10° NNE 22:53:23 24° NNE 22:53:23 24° NNE visible
11 Apr ? 00:29:18 10° NNW 00:30:59 15° NW 00:30:59 15° NW visible
11 Apr ? 23:15:11 10° N 23:17:23 28° N 23:17:23 28° N visible
12 Apr ? 00:54:54 10° NW 00:55:00 10° NW 00:55:00 10° NW visible
12 Apr ? 22:02:55 10° NE 22:03:47 14° NE 22:03:47 14° NE visible
12 Apr ? 23:38:58 10° N 23:41:23 28° NNW 23:41:23 28° NNW visible
13 Apr ? 22:26:06 10° NNE 22:27:47 21° NE 22:27:47 21° NE visible
14 Apr ? 00:02:55 10° N 00:05:23 23° NW 00:05:23 23° NW visible
14 Apr ? 22:49:31 10° NNE 22:51:46 28° NNE 22:51:46 28° NNE visible
